COSMOS 1275 DEB, 39948

Orbit data source: Space-Track

COSMOS 1275 DEB, 39948 is space debris in LEO originally from a launch on Thu, 04 Jun 1981 UTC launched from the Plesetsk Missile And Space Complex (PKMTR). Debris objects in space refer to the collection of defunct objects orbiting the Earth. Examples of debris include non-operational satellites, rocket bodies, and fragments generated from explosions, collisions, or faulty payload assembly.

Loading next visibility...
Identifier
39948, 1981-053NJ
Orbit
LEO
Country
Flag of CISCIS
Related business
Manufacturer
Unknown
Mission
Spacecraft
Bus & Motor
Unknown
Mass
Unknown
Launch date (UTC)
1981-06-04 (45 years ago)
Launch vehicle
Unknown
Launch site
Plesetsk Missile And Space Complex (PKMTR)
Object type
Payload
Rocket body
Debris
Shape & HBR
Unknown shape, 0.1 m
Radar Cross Section
Small (<0.1 m²)

Expand to show TLE details & history
Last TLE update: 1 week ago

TLE from 1 week ago
0 COSMOS 1275 DEB
1 39948U 81053NJ  26028.74874126  .00001594  00000-0  19595-2 0  9997
2 39948  83.0621  25.7938 0193447  56.0772 123.0911 13.57249629575264
Epoch: 2026-01-28T17:58Z
TLE epoch observation values (Epoch: 2026-01-28T17:58:11.244Z)
Latitude
-1.11341°
Longitude
168.37043°
Altitude
1,129.079 km
Speed
7.249 km/s
True Right ascension
13h 43m 42s
True Declination
-1° 06' 25"
Sunlit
Object was in daylight at epoch
Visualization orbit readout
Latitude
Unknown
Longitude
Unknown
Altitude
Unknown
Speed
Unknown
Apparent Right ascension
Unknown
Apparent Declination
Unknown
Sunlit
N/A
Visualization observer readout
Local Sidereal Time
14:18:55
Azimuth
Unknown
Elevation
Unknown
Doppler factor
Unknown
Orbital elements
Apogee altitude
1,186.429 km
Perigee altitude
899.315 km
Semi-major axis
7,421.009 km
Eccentricity
0.01934
Inclination
83.0621°
RAAN
25.7938°
Arg. of periapsis
56.0772°
True anomaly
124.92377°
Mean anomaly
123.0911°
Eccentric anomaly
124.00987°
Mean motion
3.39507 °/min
Orbital period
106.04 mins
BSTAR
0.0019595
Loading maneuver chart data...
Computing Atmospheric mass density...
Loading historical data...
Loading historical data...
Loading historical data...
Loading historical data...
Loading historical data...
Loading historical data...
Loading historical data...

Documentation

Showing up to 5 results
|